Time,TemperatureF,DewpointF,PressureIn,WindDirection,WindDirectionDegrees,WindSpeedMPH,WindSpeedGustMPH,Humidity,HourlyPrecipIn,Conditions,Clouds,dailyrainin,SoftwareType,DateUTC
2013-08-02 00:00:00,65.8,60.5,28.24,NW,315,0.0,0.0,83,0.00,CLR,,0.00,WeatherDisplay:10.37,2013-08-02 04:00:00,
2013-08-02 00:10:00,65.8,61.2,28.24,NNW,331,0.0,0.0,85,0.00,CLR,,0.00,WeatherDisplay:10.37,2013-08-02 04:10:00,
2013-08-02 00:20:00,65.8,60.9,28.24,WNW,294,0.0,0.0,84,0.00,CLR,,0.00,WeatherDisplay:10.37,2013-08-02 04:20:00,
2013-08-02 00:30:00,65.8,60.9,28.24,WNW,289,0.0,0.0,84,0.00,CLR,,0.00,WeatherDisplay:10.37,2013-08-02 04:30:00,
2013-08-02 00:40:00,66.0,61.0,28.24,WNW,292,0.0,0.0,84,0.00,CLR,,0.00,WeatherDisplay:10.37,2013-08-02 04:40:00,
2013-08-02 00:50:00,66.0,61.4,28.24,ENE,62,0.0,0.0,85,0.00,CLR,,0.00,WeatherDisplay:10.37,2013-08-02 04:50:00,
2013-08-02 01:00:00,65.8,60.5,28.24,SE,125,0.0,0.0,83,0.00,CLR,,0.00,WeatherDisplay:10.37,2013-08-02 05:00:00,
2013-08-02 01:10:00,65.5,59.8,28.24,SSE,158,0.0,0.0,82,0.00,CLR,,0.00,WeatherDisplay:10.37,2013-08-02 05:10:00,
2013-08-02 01:20:00,65.3,60.0,28.24,South,177,0.0,0.0,83,0.00,CLR,,0.00,WeatherDisplay:10.37,2013-08-02 05:20:00,
2013-08-02 01:30:00,65.3,60.0,28.24,South,180,0.0,0.0,83,0.00,CLR,,0.00,WeatherDisplay:10.37,2013-08-02 05:30:00,
2013-08-02 01:40:00,65.3,60.0,28.21,South,180,0.0,0.0,83,0.00,CLR,,0.00,WeatherDisplay:10.37,2013-08-02 05:40:00,
2013-08-02 01:50:00,65.3,60.3,28.21,South,180,0.0,0.0,84,0.00,CLR,,0.00,WeatherDisplay:10.37,2013-08-02 05:50:00,
2013-08-02 02:00:00,65.5,61.2,28.21,South,180,0.0,0.0,86,0.00,CLR,,0.00,WeatherDisplay:10.37,2013-08-02 06:00:00,
2013-08-02 02:10:00,65.7,61.7,28.21,South,180,0.0,0.0,87,0.00,CLR,,0.00,WeatherDisplay:10.37,2013-08-02 06:10:00,
2013-08-02 02:20:00,65.5,61.8,28.21,NNE,22,0.0,1.0,88,0.00,CLR,,0.00,WeatherDisplay:10.37,2013-08-02 06:20:00,
2013-08-02 02:30:00,65.2,61.3,28.21,SSW,202,1.0,2.0,87,0.00,CLR,,0.00,WeatherDisplay:10.37,2013-08-02 06:30:00,
2013-08-02 02:40:00,64.9,60.6,28.21,SSW,202,0.0,2.0,86,0.00,CLR,,0.00,WeatherDisplay:10.37,2013-08-02 06:40:00,
2013-08-02 02:50:00,64.6,60.3,28.21,SSW,202,0.0,0.0,86,0.00,CLR,,0.00,WeatherDisplay:10.37,2013-08-02 06:50:00,
2013-08-02 03:00:00,64.4,60.4,28.21,SSW,202,0.0,0.0,87,0.00,CLR,,0.00,WeatherDisplay:10.37,2013-08-02 07:00:00,
2013-08-02 03:10:00,64.4,61.1,28.21,SSW,202,0.0,0.0,89,0.00,CLR,,0.00,WeatherDisplay:10.37,2013-08-02 07:10:00,
2013-08-02 03:20:00,64.4,61.1,28.21,SSW,202,0.0,0.0,89,0.00,CLR,,0.00,WeatherDisplay:10.37,2013-08-02 07:20:00,
2013-08-02 03:30:00,64.4,61.1,28.21,SSW,202,0.0,0.0,89,0.00,CLR,,0.00,WeatherDisplay:10.37,2013-08-02 07:30:00,
2013-08-02 03:40:00,64.3,61.3,28.21,SSW,202,0.0,0.0,90,0.00,CLR,,0.00,WeatherDisplay:10.37,2013-08-02 07:40:00,
2013-08-02 03:50:00,64.2,61.2,28.21,SSW,202,0.0,0.0,90,0.00,CLR,,0.00,WeatherDisplay:10.37,2013-08-02 07:50:00,
2013-08-02 04:00:00,64.2,61.2,28.21,SSW,202,0.0,0.0,90,0.00,CLR,,0.00,WeatherDisplay:10.37,2013-08-02 08:00:00,
2013-08-02 04:10:00,64.2,61.5,28.21,SSW,202,0.0,0.0,91,0.00,CLR,,0.00,WeatherDisplay:10.37,2013-08-02 08:10:00,
2013-08-02 04:20:00,64.2,61.8,28.21,SSW,202,0.0,0.0,92,0.00,CLR,,0.00,WeatherDisplay:10.37,2013-08-02 08:20:00,
2013-08-02 04:30:00,64.2,62.2,28.21,East,83,0.0,2.0,93,0.00,CLR,,0.00,WeatherDisplay:10.37,2013-08-02 08:30:00,
2013-08-02 04:40:00,64.2,62.2,28.21,NE,45,0.0,0.0,93,0.00,CLR,,0.00,WeatherDisplay:10.37,2013-08-02 08:40:00,
2013-08-02 04:50:00,64.0,62.0,28.21,NNE,22,0.0,0.0,93,0.00,CLR,,0.00,WeatherDisplay:10.37,2013-08-02 08:50:00,
2013-08-02 05:00:00,63.9,61.8,28.21,NNE,22,0.0,0.0,93,0.00,CLR,,0.00,WeatherDisplay:10.37,2013-08-02 09:00:00,
2013-08-02 05:10:00,63.7,61.6,28.21,NNE,22,0.0,0.0,93,0.00,CLR,,0.00,WeatherDisplay:10.37,2013-08-02 09:10:00,
2013-08-02 05:20:00,63.5,61.1,28.21,North,349,0.0,0.0,92,0.00,CLR,,0.00,WeatherDisplay:10.37,2013-08-02 09:20:00,
2013-08-02 05:30:00,63.3,61.0,28.21,NNW,338,0.0,0.0,92,0.00,CLR,,0.00,WeatherDisplay:10.37,2013-08-02 09:30:00,
2013-08-02 05:40:00,63.3,61.0,28.21,NNW,338,0.0,0.0,92,0.00,CLR,,0.00,WeatherDisplay:10.37,2013-08-02 09:40:00,
2013-08-02 05:50:00,63.3,61.0,28.21,NNW,338,0.0,0.0,92,0.00,CLR,,0.00,WeatherDisplay:10.37,2013-08-02 09:50:00,
2013-08-02 06:00:00,63.1,60.8,28.21,NNW,338,0.0,0.0,92,0.00,CLR,,0.00,WeatherDisplay:10.37,2013-08-02 10:00:00,
2013-08-02 06:10:00,63.0,60.9,28.21,NNW,338,0.0,0.0,93,0.00,CLR,,0.00,WeatherDisplay:10.37,2013-08-02 10:10:00,
2013-08-02 06:20:00,63.0,60.9,28.21,NNW,338,0.0,0.0,93,0.00,CLR,,0.00,WeatherDisplay:10.37,2013-08-02 10:20:00,
2013-08-02 06:30:00,62.6,60.2,28.21,NNW,338,0.0,0.0,92,0.00,CLR,,0.00,WeatherDisplay:10.37,2013-08-02 10:30:00,
2013-08-02 06:40:00,62.2,59.9,28.21,NNW,338,0.0,0.0,92,0.00,CLR,,0.00,WeatherDisplay:10.37,2013-08-02 10:40:00,
2013-08-02 06:50:00,62.1,59.7,28.21,NNW,338,0.0,0.0,92,0.00,CLR,,0.00,WeatherDisplay:10.37,2013-08-02 10:50:00,
2013-08-02 07:00:00,62.1,60.0,28.21,NNW,338,0.0,0.0,93,0.00,CLR,,0.00,WeatherDisplay:10.37,2013-08-02 11:00:00,
2013-08-02 07:10:00,62.1,60.0,28.24,NNW,329,0.0,0.0,93,0.00,CLR,,0.00,WeatherDisplay:10.37,2013-08-02 11:10:00,
2013-08-02 07:20:00,62.1,60.0,28.21,NW,305,0.0,0.0,93,0.00,CLR,,0.00,WeatherDisplay:10.37,2013-08-02 11:20:00,
2013-08-02 07:30:00,62.2,60.5,28.21,WNW,292,0.0,0.0,94,0.00,CLR,,0.00,WeatherDisplay:10.37,2013-08-02 11:30:00,
2013-08-02 07:40:00,62.6,60.9,28.21,WNW,292,0.0,0.0,94,0.00,CLR,,0.00,WeatherDisplay:10.37,2013-08-02 11:40:00,
2013-08-02 07:50:00,63.5,62.0,28.24,WNW,292,0.0,0.0,95,0.00,CLR,,0.00,WeatherDisplay:10.37,2013-08-02 11:50:00,
2013-08-02 08:00:00,64.0,62.9,28.24,West,277,0.0,0.0,96,0.00,CLR,,0.00,WeatherDisplay:10.37,2013-08-02 12:00:00,
2013-08-02 08:10:00,64.4,63.3,28.21,WSW,248,0.0,0.0,96,0.00,CLR,,0.00,WeatherDisplay:10.37,2013-08-02 12:10:00,
2013-08-02 08:20:00,64.8,63.4,28.21,WSW,248,0.0,1.0,95,0.00,CLR,,0.00,WeatherDisplay:10.37,2013-08-02 12:20:00,
2013-08-02 08:30:00,65.6,64.5,28.21,SSW,210,0.0,2.0,96,0.00,CLR,,0.00,WeatherDisplay:10.37,2013-08-02 12:30:00,
2013-08-02 08:40:00,66.4,65.2,28.21,SSW,202,0.0,0.0,96,0.00,CLR,,0.00,WeatherDisplay:10.37,2013-08-02 12:40:00,
2013-08-02 08:50:00,67.1,65.9,28.21,SW,231,0.0,0.0,96,0.00,CLR,,0.00,WeatherDisplay:10.37,2013-08-02 12:50:00,
2013-08-02 09:00:00,67.8,66.6,28.21,SW,218,0.0,1.0,96,0.00,CLR,,0.00,WeatherDisplay:10.37,2013-08-02 13:00:00,
2013-08-02 09:10:00,68.0,66.2,28.24,SSW,209,0.0,1.0,94,0.00,CLR,,0.00,WeatherDisplay:10.37,2013-08-02 13:10:00,
2013-08-02 09:20:00,68.6,66.2,28.21,SSW,212,1.0,2.0,92,0.00,CLR,,0.00,WeatherDisplay:10.37,2013-08-02 13:20:00,
2013-08-02 09:30:00,69.3,66.5,28.21,SSW,202,1.0,1.0,91,0.00,CLR,,0.00,WeatherDisplay:10.37,2013-08-02 13:30:00,
2013-08-02 09:40:00,70.2,64.1,28.24,SSW,207,0.0,1.0,81,0.00,CLR,,0.00,WeatherDisplay:10.37,2013-08-02 13:40:00,
2013-08-02 09:50:00,71.0,63.0,28.24,SSW,202,1.0,2.0,76,0.00,CLR,,0.00,WeatherDisplay:10.37,2013-08-02 13:50:00,
2013-08-02 10:00:00,71.6,60.1,28.24,SW,215,1.0,1.0,67,0.00,CLR,,0.00,WeatherDisplay:10.37,2013-08-02 14:00:00,
2013-08-02 10:10:00,72.7,55.6,28.24,ESE,109,1.0,2.0,55,0.00,CLR,,0.00,WeatherDisplay:10.37,2013-08-02 14:10:00,
2013-08-02 10:20:00,72.9,55.7,28.24,South,179,1.0,2.0,55,0.00,CLR,,0.00,WeatherDisplay:10.37,2013-08-02 14:20:00,
2013-08-02 10:30:00,71.6,57.0,28.24,SSW,210,0.0,1.0,60,0.00,CLR,,0.00,WeatherDisplay:10.37,2013-08-02 14:30:00,
2013-08-02 10:40:00,70.5,52.0,28.24,SE,134,1.0,2.0,52,0.00,CLR,,0.00,WeatherDisplay:10.37,2013-08-02 14:40:00,
2013-08-02 10:50:00,72.8,56.7,28.24,South,174,1.0,3.0,57,0.00,CLR,,0.00,WeatherDisplay:10.37,2013-08-02 14:50:00,
2013-08-02 11:00:00,74.5,54.1,28.24,NNE,33,0.0,3.0,49,0.00,CLR,,0.00,WeatherDisplay:10.37,2013-08-02 15:00:00,
2013-08-02 11:10:00,75.9,52.4,28.24,NNW,337,0.0,3.0,44,0.00,CLR,,0.00,WeatherDisplay:10.37,2013-08-02 15:10:00,
2013-08-02 11:20:00,76.6,51.2,28.24,ENE,78,0.0,2.0,41,0.00,CLR,,0.00,WeatherDisplay:10.37,2013-08-02 15:20:00,
2013-08-02 11:30:00,77.0,47.2,28.24,North,0,0.0,3.0,35,0.00,CLR,,0.00,WeatherDisplay:10.37,2013-08-02 15:30:00,
2013-08-02 11:40:00,75.8,44.6,28.27,North,0,0.0,3.0,33,0.00,CLR,,0.00,WeatherDisplay:10.37,2013-08-02 15:40:00,
2013-08-02 11:50:00,76.0,45.6,28.27,North,0,0.0,3.0,34,0.00,CLR,,0.00,WeatherDisplay:10.37,2013-08-02 15:50:00,
2013-08-02 12:00:00,77.2,45.8,28.27,North,0,0.0,1.0,33,0.00,CLR,,0.00,WeatherDisplay:10.37,2013-08-02 16:00:00,
2013-08-02 12:10:00,77.2,44.2,28.27,North,0,0.0,1.0,31,0.00,CLR,,0.00,WeatherDisplay:10.37,2013-08-02 16:10:00,
2013-08-02 12:20:00,77.4,43.5,28.27,North,0,0.0,1.0,30,0.00,CLR,,0.00,WeatherDisplay:10.37,2013-08-02 16:20:00,
2013-08-02 12:30:00,77.8,45.6,28.27,North,0,0.0,1.0,32,0.00,CLR,,0.00,WeatherDisplay:10.37,2013-08-02 16:30:00,
2013-08-02 12:40:00,78.2,45.9,28.27,North,0,0.0,1.0,32,0.00,CLR,,0.00,WeatherDisplay:10.37,2013-08-02 16:40:00,
2013-08-02 12:50:00,78.4,44.4,28.27,SSW,206,1.0,1.0,30,0.00,CLR,,0.00,WeatherDisplay:10.37,2013-08-02 16:50:00,
2013-08-02 13:00:00,78.3,44.3,28.27,SSW,202,1.0,0.0,30,0.00,CLR,,0.00,WeatherDisplay:10.37,2013-08-02 17:00:00,
2013-08-02 13:10:00,77.9,44.0,28.27,SSW,202,1.0,0.0,30,0.00,CLR,,0.00,WeatherDisplay:10.37,2013-08-02 17:10:00,
2013-08-02 13:20:00,77.5,46.2,28.27,South,186,1.0,2.0,33,0.00,CLR,,0.00,WeatherDisplay:10.37,2013-08-02 17:20:00,
2013-08-02 13:30:00,78.5,46.2,28.27,NNE,22,1.0,2.0,32,0.00,CLR,,0.00,WeatherDisplay:10.37,2013-08-02 17:30:00,
2013-08-02 13:40:00,78.6,46.2,28.27,NNE,22,1.0,2.0,32,0.00,CLR,,0.00,WeatherDisplay:10.37,2013-08-02 17:40:00,
2013-08-02 13:50:00,78.7,46.3,28.27,NNE,22,1.0,2.0,32,0.00,CLR,,0.00,WeatherDisplay:10.37,2013-08-02 17:50:00,
2013-08-02 14:00:00,79.4,49.4,28.27,North,3,2.0,3.0,35,0.00,CLR,,0.00,WeatherDisplay:10.37,2013-08-02 18:00:00,
2013-08-02 14:10:00,78.8,46.4,28.27,ENE,68,0.0,3.0,32,0.00,CLR,,0.00,WeatherDisplay:10.37,2013-08-02 18:10:00,
2013-08-02 14:20:00,78.3,45.1,28.27,ENE,68,0.0,0.0,31,0.00,CLR,,0.00,WeatherDisplay:10.37,2013-08-02 18:20:00,
2013-08-02 14:30:00,79.2,45.1,28.27,NNW,340,1.0,0.0,30,0.00,CLR,,0.00,WeatherDisplay:10.37,2013-08-02 18:30:00,
2013-08-02 14:40:00,80.0,48.3,28.27,North,352,0.0,1.0,33,0.00,CLR,,0.00,WeatherDisplay:10.37,2013-08-02 18:40:00,
2013-08-02 14:50:00,79.9,42.9,28.30,WSW,248,1.0,2.0,27,0.00,CLR,,0.00,WeatherDisplay:10.37,2013-08-02 18:50:00,
2013-08-02 15:00:00,80.0,45.8,28.30,NNW,330,1.0,2.0,30,0.00,CLR,,0.00,WeatherDisplay:10.37,2013-08-02 19:00:00,
2013-08-02 15:10:00,79.9,45.7,28.27,NW,322,0.0,2.0,30,0.00,CLR,,0.00,WeatherDisplay:10.37,2013-08-02 19:10:00,
2013-08-02 15:20:00,80.8,46.4,28.27,WNW,297,1.0,3.0,30,0.00,CLR,,0.00,WeatherDisplay:10.37,2013-08-02 19:20:00,
2013-08-02 15:30:00,80.8,42.7,28.27,WSW,258,0.0,3.0,26,0.00,CLR,,0.00,WeatherDisplay:10.37,2013-08-02 19:30:00,
2013-08-02 15:40:00,80.4,45.2,28.30,SW,233,1.0,4.0,29,0.00,CLR,,0.00,WeatherDisplay:10.37,2013-08-02 19:40:00,
2013-08-02 15:50:00,81.1,46.8,28.30,WSW,246,2.0,5.0,30,0.00,CLR,,0.00,WeatherDisplay:10.37,2013-08-02 19:50:00,
2013-08-02 16:00:00,80.4,42.4,28.30,South,169,3.0,5.0,26,0.00,CLR,,0.00,WeatherDisplay:10.37,2013-08-02 20:00:00,
2013-08-02 16:10:00,79.3,43.4,28.30,SW,217,0.0,4.0,28,0.00,CLR,,0.00,WeatherDisplay:10.37,2013-08-02 20:10:00,
2013-08-02 16:20:00,79.5,46.2,28.30,West,267,1.0,1.0,31,0.00,CLR,,0.00,WeatherDisplay:10.37,2013-08-02 20:20:00,
2013-08-02 16:30:00,79.9,43.9,28.30,WNW,292,1.0,1.0,28,0.00,CLR,,0.00,WeatherDisplay:10.37,2013-08-02 20:30:00,
2013-08-02 16:40:00,80.8,45.6,28.30,WSW,250,1.0,1.0,29,0.00,CLR,,0.00,WeatherDisplay:10.37,2013-08-02 20:40:00,
2013-08-02 16:50:00,81.4,42.2,28.30,NW,311,1.0,2.0,25,0.00,CLR,,0.00,WeatherDisplay:10.37,2013-08-02 20:50:00,
2013-08-02 17:00:00,82.0,42.7,28.30,West,278,1.0,2.0,25,0.00,CLR,,0.00,WeatherDisplay:10.37,2013-08-02 21:00:00,
2013-08-02 17:10:00,82.6,42.1,28.30,West,259,1.0,3.0,24,0.00,CLR,,0.00,WeatherDisplay:10.37,2013-08-02 21:10:00,
2013-08-02 17:20:00,81.9,40.4,28.33,NNW,328,1.0,1.0,23,0.00,CLR,,0.00,WeatherDisplay:10.37,2013-08-02 21:20:00,
2013-08-02 17:30:00,81.4,42.2,28.33,WSW,248,1.0,0.0,25,0.00,CLR,,0.00,WeatherDisplay:10.37,2013-08-02 21:30:00,
2013-08-02 17:40:00,81.3,45.1,28.30,WSW,248,1.0,0.0,28,0.00,CLR,,0.00,WeatherDisplay:10.37,2013-08-02 21:40:00,
2013-08-02 17:50:00,80.8,45.6,28.30,WNW,292,0.0,0.0,29,0.00,CLR,,0.00,WeatherDisplay:10.37,2013-08-02 21:50:00,
2013-08-02 18:00:00,79.3,43.4,28.30,WNW,292,0.0,0.0,28,0.00,CLR,,0.00,WeatherDisplay:10.37,2013-08-02 22:00:00,
2013-08-02 18:10:00,78.8,45.6,28.30,WNW,292,0.0,0.0,31,0.00,CLR,,0.00,WeatherDisplay:10.37,2013-08-02 22:10:00,
2013-08-02 18:20:00,78.4,47.7,28.30,WNW,292,0.0,0.0,34,0.00,CLR,,0.00,WeatherDisplay:10.37,2013-08-02 22:20:00,
2013-08-02 18:30:00,79.4,46.1,28.30,WNW,292,0.0,0.0,31,0.00,CLR,,0.00,WeatherDisplay:10.37,2013-08-02 22:30:00,
2013-08-02 18:40:00,79.5,45.4,28.27,WNW,292,0.0,0.0,30,0.00,CLR,,0.00,WeatherDisplay:10.37,2013-08-02 22:40:00,
2013-08-02 18:50:00,77.8,44.7,28.27,WNW,292,0.0,0.0,31,0.00,CLR,,0.00,WeatherDisplay:10.37,2013-08-02 22:50:00,
2013-08-02 19:00:00,76.8,45.5,28.27,WNW,292,0.0,0.0,33,0.00,CLR,,0.00,WeatherDisplay:10.37,2013-08-02 23:00:00,
2013-08-02 19:10:00,76.9,47.2,28.27,WNW,292,0.0,0.0,35,0.00,CLR,,0.00,WeatherDisplay:10.37,2013-08-02 23:10:00,
2013-08-02 19:20:00,75.5,47.4,28.27,WNW,292,0.0,0.0,37,0.00,CLR,,0.00,WeatherDisplay:10.37,2013-08-02 23:20:00,
2013-08-02 19:30:00,73.6,47.1,28.27,WNW,292,0.0,0.0,39,0.00,CLR,,0.00,WeatherDisplay:10.37,2013-08-02 23:30:00,
2013-08-02 19:40:00,72.4,49.3,28.27,WNW,292,0.0,0.0,44,0.00,CLR,,0.00,WeatherDisplay:10.37,2013-08-02 23:40:00,
2013-08-02 19:50:00,71.8,50.5,28.24,WNW,292,0.0,0.0,47,0.00,CLR,,0.00,WeatherDisplay:10.37,2013-08-02 23:50:00,
2013-08-02 20:00:00,71.1,50.9,28.24,WNW,292,0.0,0.0,49,0.00,CLR,,0.00,WeatherDisplay:10.37,2013-08-03 00:00:00,
2013-08-02 20:10:00,70.3,51.3,28.24,WNW,292,0.0,0.0,51,0.00,CLR,,0.00,WeatherDisplay:10.37,2013-08-03 00:10:00,
2013-08-02 20:20:00,70.0,53.1,28.24,WNW,292,0.0,0.0,55,0.00,CLR,,0.00,WeatherDisplay:10.37,2013-08-03 00:20:00,
2013-08-02 20:30:00,69.6,54.2,28.24,WNW,292,0.0,0.0,58,0.00,CLR,,0.00,WeatherDisplay:10.37,2013-08-03 00:30:00,
2013-08-02 20:40:00,69.0,55.0,28.24,WNW,292,0.0,0.0,61,0.00,CLR,,0.00,WeatherDisplay:10.37,2013-08-03 00:40:00,
2013-08-02 20:50:00,68.5,54.1,28.24,NW,320,0.0,0.0,60,0.00,CLR,,0.00,WeatherDisplay:10.37,2013-08-03 00:50:00,
2013-08-02 21:00:00,68.0,54.1,28.24,NNW,338,0.0,0.0,61,0.00,CLR,,0.00,WeatherDisplay:10.37,2013-08-03 01:00:00,
2013-08-02 21:10:00,67.6,54.6,28.27,North,357,0.0,0.0,63,0.00,CLR,,0.00,WeatherDisplay:10.37,2013-08-03 01:10:00,
2013-08-02 21:20:00,67.3,54.7,28.27,NNE,22,0.0,0.0,64,0.00,CLR,,0.00,WeatherDisplay:10.37,2013-08-03 01:20:00,
2013-08-02 21:30:00,67.1,55.4,28.27,NNE,22,0.0,0.0,66,0.00,CLR,,0.00,WeatherDisplay:10.37,2013-08-03 01:30:00,
2013-08-02 21:40:00,66.9,55.6,28.27,NNE,22,0.0,0.0,67,0.00,CLR,,0.00,WeatherDisplay:10.37,2013-08-03 01:40:00,
2013-08-02 21:50:00,66.5,55.2,28.27,NNE,22,0.0,0.0,67,0.00,CLR,,0.00,WeatherDisplay:10.37,2013-08-03 01:50:00,
2013-08-02 22:00:00,66.2,54.5,28.27,NNE,22,0.0,0.0,66,0.00,CLR,,0.00,WeatherDisplay:10.37,2013-08-03 02:00:00,
2013-08-02 22:10:00,66.2,54.1,28.24,NNE,22,0.0,0.0,65,0.00,CLR,,0.00,WeatherDisplay:10.37,2013-08-03 02:10:00,
2013-08-02 22:20:00,66.2,54.5,28.27,NNE,22,0.0,0.0,66,0.00,CLR,,0.00,WeatherDisplay:10.37,2013-08-03 02:20:00,
2013-08-02 22:30:00,66.0,54.3,28.27,NNE,22,0.0,0.0,66,0.00,CLR,,0.00,WeatherDisplay:10.37,2013-08-03 02:30:00,
2013-08-02 22:40:00,66.0,54.7,28.27,NNE,22,0.0,0.0,67,0.00,CLR,,0.00,WeatherDisplay:10.37,2013-08-03 02:40:00,
2013-08-02 22:50:00,65.8,54.6,28.24,NNE,22,0.0,0.0,67,0.00,CLR,,0.00,WeatherDisplay:10.37,2013-08-03 02:50:00,
2013-08-02 23:00:00,65.5,54.6,28.24,NNE,22,0.0,0.0,68,0.00,CLR,,0.00,WeatherDisplay:10.37,2013-08-03 03:00:00,
2013-08-02 23:10:00,65.1,53.9,28.24,NNE,22,0.0,0.0,67,0.00,CLR,,0.00,WeatherDisplay:10.37,2013-08-03 03:10:00,
2013-08-02 23:20:00,64.9,53.7,28.24,NNE,22,0.0,0.0,67,0.00,CLR,,0.00,WeatherDisplay:10.37,2013-08-03 03:20:00,
2013-08-02 23:30:00,64.6,53.8,28.24,NNE,22,0.0,0.0,68,0.00,CLR,,0.00,WeatherDisplay:10.37,2013-08-03 03:30:00,
2013-08-02 23:40:00,64.2,54.2,28.24,NNE,22,0.0,0.0,70,0.00,CLR,,0.00,WeatherDisplay:10.37,2013-08-03 03:40:00,
2013-08-02 23:50:00,64.0,54.4,28.24,NNE,22,0.0,0.0,71,0.00,CLR,,0.00,WeatherDisplay:10.37,2013-08-03 03:50:00,